AMX259 KLAX-MMGL

Flight info

Callsign AMX259
Flight time 2h 46m
Altitude 37000
Route PNDAH2 OTAYY DCT TIJ UT4 ANTEL DCT SOUSY DCT AMULA AMULA1B
Aircraft B38M/M-SDE1FGHILORVWXY/HB1

Departure

Time 2026-04-26 00:44
Airport Los Angeles International Airport (KLAX)

Arrival

Time 2026-04-26 03:30
Airport Guadalajara International Airport (MMGL)
Time Latitude Longitude Altitude Speed Heading
2026-04-26 00:18 33.94357 -118.41440 128 ft 0 kts 261°
2026-04-26 00:34 33.94357 -118.41441 128 ft 1 kts 261°
2026-04-26 00:34 33.94386 -118.41366 125 ft 8 kts 213°
2026-04-26 00:34 33.94390 -118.41362 123 ft 1 kts 210°
2026-04-26 00:34 33.94432 -118.41345 126 ft 1 kts 172°
2026-04-26 00:35 33.94422 -118.41344 123 ft 0 kts 177°
2026-04-26 00:36 33.94376 -118.41340 123 ft 13 kts 172°
2026-04-26 00:36 33.94294 -118.41326 125 ft 12 kts 173°
2026-04-26 00:36 33.94206 -118.41313 126 ft 14 kts 173°
2026-04-26 00:37 33.94104 -118.41298 126 ft 16 kts 173°
2026-04-26 00:37 33.93997 -118.41283 127 ft 11 kts 172°
2026-04-26 00:37 33.93917 -118.41270 127 ft 13 kts 173°
2026-04-26 00:37 33.93824 -118.41257 126 ft 11 kts 173°
2026-04-26 00:38 33.93759 -118.41213 126 ft 12 kts 109°
2026-04-26 00:38 33.93762 -118.41134 128 ft 7 kts 80°
2026-04-26 00:38 33.93771 -118.41066 128 ft 9 kts 81°
2026-04-26 00:38 33.93778 -118.40979 128 ft 11 kts 83°
2026-04-26 00:39 33.93789 -118.40877 128 ft 13 kts 82°
2026-04-26 00:39 33.93801 -118.40758 128 ft 15 kts 83°
2026-04-26 00:39 33.93815 -118.40624 128 ft 17 kts 84°
2026-04-26 00:39 33.93829 -118.40474 128 ft 19 kts 83°
2026-04-26 00:40 33.93846 -118.40313 128 ft 20 kts 83°
2026-04-26 00:40 33.93864 -118.40138 125 ft 22 kts 83°
2026-04-26 00:40 33.93884 -118.39947 124 ft 24 kts 83°
2026-04-26 00:40 33.93904 -118.39743 128 ft 25 kts 83°
2026-04-26 00:41 33.93923 -118.39558 128 ft 22 kts 83°
2026-04-26 00:41 33.93941 -118.39388 126 ft 21 kts 83°
2026-04-26 00:41 33.93959 -118.39206 128 ft 23 kts 83°
2026-04-26 00:41 33.93979 -118.39011 128 ft 24 kts 83°
2026-04-26 00:42 33.94001 -118.38801 126 ft 26 kts 83°
2026-04-26 00:42 33.94024 -118.38577 126 ft 28 kts 83°
2026-04-26 00:42 33.94048 -118.38340 128 ft 29 kts 83°
2026-04-26 00:42 33.94063 -118.38193 128 ft 16 kts 82°
2026-04-26 00:43 33.94078 -118.38053 128 ft 16 kts 85°
2026-04-26 00:43 33.94029 -118.37994 127 ft 9 kts 184°
2026-04-26 00:43 33.93982 -118.38043 125 ft 10 kts 258°
2026-04-26 00:43 33.93971 -118.38156 128 ft 33 kts 263°
2026-04-26 00:44 33.93905 -118.38791 128 ft 115 kts 263°
2026-04-26 00:44 33.93784 -118.39992 215 ft 171 kts 263°
2026-04-26 00:44 33.93627 -118.41543 798 ft 200 kts 263°
2026-04-26 00:44 33.93455 -118.43275 1632 ft 218 kts 263°
2026-04-26 00:45 33.93250 -118.45125 2483 ft 229 kts 257°
2026-04-26 00:45 33.92502 -118.46785 3532 ft 226 kts 233°
2026-04-26 00:45 33.91528 -118.48300 4402 ft 233 kts 233°
2026-04-26 00:45 33.90508 -118.49817 5348 ft 230 kts 231°
2026-04-26 00:46 33.89472 -118.51316 6225 ft 238 kts 231°
2026-04-26 00:46 33.88404 -118.52856 7110 ft 240 kts 231°
2026-04-26 00:46 33.87140 -118.54257 7759 ft 259 kts 211°
2026-04-26 00:46 33.85352 -118.54849 8433 ft 275 kts 184°
2026-04-26 00:47 33.83447 -118.54586 9430 ft 279 kts 174°
2026-04-26 00:47 33.81516 -118.54210 10265 ft 284 kts 175°
2026-04-26 00:47 33.79501 -118.53838 10768 ft 302 kts 175°
2026-04-26 00:47 33.77352 -118.53454 11239 ft 323 kts 176°
2026-04-26 00:48 33.75078 -118.53050 11805 ft 337 kts 176°
2026-04-26 00:48 33.72720 -118.52604 12435 ft 348 kts 172°
2026-04-26 00:48 33.70455 -118.51462 13388 ft 361 kts 152°
2026-04-26 00:48 33.68592 -118.49365 14227 ft 377 kts 130°
2026-04-26 00:49 33.67324 -118.46566 15124 ft 384 kts 121°
2026-04-26 00:49 33.66112 -118.43692 15968 ft 388 kts 122°
2026-04-26 00:49 33.64870 -118.40793 16685 ft 394 kts 123°
2026-04-26 00:49 33.63613 -118.37866 16897 ft 395 kts 123°
2026-04-26 00:50 33.62351 -118.34938 16971 ft 395 kts 123°
2026-04-26 00:50 33.61090 -118.32011 16998 ft 395 kts 123°
2026-04-26 00:50 33.59827 -118.29085 17000 ft 395 kts 123°
2026-04-26 00:50 33.58562 -118.26156 17008 ft 395 kts 123°
2026-04-26 00:51 33.57297 -118.23229 17006 ft 396 kts 123°
2026-04-26 00:51 33.56030 -118.20299 17007 ft 396 kts 123°
2026-04-26 00:51 33.54759 -118.17362 17006 ft 396 kts 123°
2026-04-26 00:51 33.53501 -118.14447 17006 ft 396 kts 123°
2026-04-26 00:52 33.52238 -118.11510 17001 ft 396 kts 123°
2026-04-26 00:52 33.50973 -118.08573 17013 ft 397 kts 123°
2026-04-26 00:52 33.49708 -118.05637 17017 ft 397 kts 123°
2026-04-26 00:52 33.48442 -118.02701 16997 ft 396 kts 123°
2026-04-26 00:53 33.47098 -117.99836 16989 ft 390 kts 133°
2026-04-26 00:53 33.45262 -117.97527 17015 ft 382 kts 144°
2026-04-26 00:53 33.43307 -117.95368 17006 ft 382 kts 145°
2026-04-26 00:53 33.41340 -117.93230 17009 ft 382 kts 145°
2026-04-26 00:54 33.39361 -117.91103 17007 ft 382 kts 146°
2026-04-26 00:54 33.37377 -117.88988 17006 ft 382 kts 146°
2026-04-26 00:54 33.35395 -117.86883 17009 ft 382 kts 146°
2026-04-26 00:54 33.33405 -117.84772 17632 ft 382 kts 146°
2026-04-26 00:55 33.31399 -117.82649 18260 ft 387 kts 147°
2026-04-26 00:55 33.29373 -117.80504 18815 ft 391 kts 147°
2026-04-26 00:55 33.27333 -117.78346 19408 ft 393 kts 147°
2026-04-26 00:55 33.25277 -117.76172 19992 ft 396 kts 147°
2026-04-26 00:56 33.23205 -117.73983 20548 ft 399 kts 147°
2026-04-26 00:56 33.21119 -117.71780 21100 ft 402 kts 148°
2026-04-26 00:56 33.19013 -117.69558 21658 ft 405 kts 148°
2026-04-26 00:56 33.16895 -117.67323 22198 ft 408 kts 147°
2026-04-26 00:57 33.14788 -117.64983 22521 ft 419 kts 146°
2026-04-26 00:57 33.12637 -117.62574 22831 ft 427 kts 146°
2026-04-26 00:57 33.10461 -117.60149 23391 ft 429 kts 146°
2026-04-26 00:57 33.08268 -117.57711 23805 ft 433 kts 147°
2026-04-26 00:58 33.06060 -117.55257 24231 ft 435 kts 147°
2026-04-26 00:58 33.03835 -117.52788 24647 ft 438 kts 147°
2026-04-26 00:58 33.01597 -117.50306 25052 ft 441 kts 147°
2026-04-26 00:58 32.99345 -117.47810 25454 ft 444 kts 147°
2026-04-26 00:59 32.97077 -117.45298 25859 ft 446 kts 147°
2026-04-26 00:59 32.94800 -117.42778 26264 ft 449 kts 147°
2026-04-26 00:59 32.92507 -117.40241 26703 ft 450 kts 148°
2026-04-26 00:59 32.90215 -117.37709 27243 ft 449 kts 148°
2026-04-26 01:00 32.87932 -117.35188 27768 ft 448 kts 148°
2026-04-26 01:00 32.85656 -117.32677 28279 ft 447 kts 148°
2026-04-26 01:00 32.83376 -117.30163 28797 ft 446 kts 149°
2026-04-26 01:00 32.81103 -117.27658 29291 ft 445 kts 149°
2026-04-26 01:01 32.78833 -117.25159 29801 ft 445 kts 149°
2026-04-26 01:01 32.76566 -117.22664 30264 ft 444 kts 149°
2026-04-26 01:01 32.74302 -117.20176 30681 ft 443 kts 149°
2026-04-26 01:01 32.72041 -117.17692 31082 ft 443 kts 150°
2026-04-26 01:02 32.69786 -117.15216 31477 ft 442 kts 150°
2026-04-26 01:02 32.67528 -117.12738 31857 ft 441 kts 150°
2026-04-26 01:02 32.65396 -117.10056 32268 ft 450 kts 144°
2026-04-26 01:02 32.63319 -117.07300 32633 ft 448 kts 145°
2026-04-26 01:03 32.61224 -117.04564 32988 ft 447 kts 146°
2026-04-26 01:03 32.59127 -117.01849 33370 ft 446 kts 146°
2026-04-26 01:03 32.57056 -116.99176 33735 ft 445 kts 146°
2026-04-26 01:03 32.55642 -116.97353 33970 ft 445 kts 146°
2026-04-26 01:04 32.52865 -116.93797 34389 ft 444 kts 146°
2026-04-26 01:04 32.50766 -116.91116 34634 ft 444 kts 146°
2026-04-26 01:04 32.48661 -116.88429 34876 ft 445 kts 146°
2026-04-26 01:04 32.46556 -116.85745 35124 ft 446 kts 146°
2026-04-26 01:05 32.44440 -116.83048 35339 ft 446 kts 146°
2026-04-26 01:05 32.42327 -116.80356 35564 ft 447 kts 146°
2026-04-26 01:05 32.40897 -116.78536 35725 ft 447 kts 146°
2026-04-26 01:05 32.38776 -116.75838 35947 ft 448 kts 146°
2026-04-26 01:06 32.36655 -116.73141 36142 ft 448 kts 146°
2026-04-26 01:06 32.34529 -116.70442 36340 ft 449 kts 146°
2026-04-26 01:06 32.30228 -116.64987 36342 ft 460 kts 146°
2026-04-26 01:07 32.25803 -116.59381 36326 ft 473 kts 145°
2026-04-26 01:07 32.23588 -116.56578 36526 ft 473 kts 145°
2026-04-26 01:07 32.21344 -116.53738 36708 ft 474 kts 145°
2026-04-26 01:08 32.19092 -116.50897 36882 ft 474 kts 146°
2026-04-26 01:08 32.16836 -116.48053 37004 ft 475 kts 145°
2026-04-26 01:08 32.12319 -116.42365 36997 ft 474 kts 146°
2026-04-26 01:09 32.07804 -116.36688 36997 ft 474 kts 146°
2026-04-26 01:09 32.03284 -116.31014 36986 ft 474 kts 146°
2026-04-26 01:10 31.98764 -116.25349 36982 ft 475 kts 146°
2026-04-26 01:10 31.94232 -116.19677 36990 ft 475 kts 146°
2026-04-26 01:11 31.89701 -116.14015 36979 ft 475 kts 146°
2026-04-26 01:11 31.85166 -116.08356 36986 ft 475 kts 146°
2026-04-26 01:12 31.80623 -116.02697 36969 ft 475 kts 146°
2026-04-26 01:12 31.76085 -115.97053 36976 ft 475 kts 146°
2026-04-26 01:13 31.71544 -115.91415 36966 ft 475 kts 146°
2026-04-26 01:13 31.67001 -115.85786 36958 ft 475 kts 146°
2026-04-26 01:14 31.62455 -115.80158 36954 ft 477 kts 146°
2026-04-26 01:14 31.57855 -115.74475 36944 ft 483 kts 146°
2026-04-26 01:15 31.53252 -115.68795 36925 ft 483 kts 146°
2026-04-26 01:15 31.48615 -115.63082 36957 ft 484 kts 146°
2026-04-26 01:16 31.43969 -115.57368 36938 ft 484 kts 146°
2026-04-26 01:16 31.39322 -115.51661 36917 ft 484 kts 146°
2026-04-26 01:17 31.34676 -115.45963 36894 ft 484 kts 146°
2026-04-26 01:17 31.30018 -115.40260 36914 ft 485 kts 146°
2026-04-26 01:18 31.25368 -115.34575 36879 ft 484 kts 146°
2026-04-26 01:18 31.20709 -115.28888 36864 ft 484 kts 146°
2026-04-26 01:19 31.16056 -115.23217 36847 ft 483 kts 146°
2026-04-26 01:19 31.11398 -115.17549 36838 ft 484 kts 146°
2026-04-26 01:20 31.06733 -115.11880 36831 ft 483 kts 146°
2026-04-26 01:20 31.02070 -115.06223 36824 ft 484 kts 146°
2026-04-26 01:21 30.97412 -115.00580 36832 ft 482 kts 146°
2026-04-26 01:21 30.92767 -114.94959 36809 ft 482 kts 146°
2026-04-26 01:22 30.88107 -114.89332 36804 ft 482 kts 146°
2026-04-26 01:22 30.83445 -114.83707 36794 ft 483 kts 146°
2026-04-26 01:23 30.78804 -114.78118 36797 ft 483 kts 147°
2026-04-26 01:23 30.74132 -114.72498 36788 ft 484 kts 147°
2026-04-26 01:24 30.69451 -114.66876 36790 ft 484 kts 147°
2026-04-26 01:24 30.64764 -114.61255 36788 ft 484 kts 147°
2026-04-26 01:25 30.60075 -114.55642 36784 ft 484 kts 147°
2026-04-26 01:25 30.55381 -114.50028 36787 ft 485 kts 147°
2026-04-26 01:26 30.50683 -114.44420 36793 ft 485 kts 147°
2026-04-26 01:26 30.45977 -114.38810 36794 ft 485 kts 147°
2026-04-26 01:27 30.41266 -114.33203 36799 ft 486 kts 147°
2026-04-26 01:27 30.36552 -114.27599 36806 ft 486 kts 147°
2026-04-26 01:28 30.31827 -114.21990 36808 ft 486 kts 147°
2026-04-26 01:28 30.27121 -114.16414 36815 ft 487 kts 147°
2026-04-26 01:29 30.22386 -114.10811 36820 ft 487 kts 147°
2026-04-26 01:29 30.17643 -114.05207 36829 ft 488 kts 147°
2026-04-26 01:30 30.12910 -113.99621 36825 ft 488 kts 147°
2026-04-26 01:30 30.08140 -113.94002 36831 ft 488 kts 147°
2026-04-26 01:31 30.03389 -113.88412 36835 ft 488 kts 147°
2026-04-26 01:31 29.98631 -113.82823 36836 ft 488 kts 147°
2026-04-26 01:32 29.93865 -113.77233 36837 ft 488 kts 147°
2026-04-26 01:32 29.89098 -113.71647 36839 ft 489 kts 147°
2026-04-26 01:33 29.84328 -113.66067 36836 ft 489 kts 147°
2026-04-26 01:33 29.79594 -113.60413 36839 ft 495 kts 143°
2026-04-26 01:34 29.75073 -113.54496 36843 ft 495 kts 143°
2026-04-26 01:34 29.70491 -113.48580 36844 ft 495 kts 143°
2026-04-26 01:35 29.65901 -113.42668 36846 ft 495 kts 143°
2026-04-26 01:35 29.61308 -113.36761 36848 ft 495 kts 143°
2026-04-26 01:36 29.56721 -113.30870 36850 ft 495 kts 143°
2026-04-26 01:37 29.49831 -113.22038 36851 ft 494 kts 143°
2026-04-26 01:37 29.45243 -113.16168 36846 ft 494 kts 143°
2026-04-26 01:38 29.40644 -113.10293 36858 ft 494 kts 143°
2026-04-26 01:38 29.36053 -113.04436 36856 ft 494 kts 143°
2026-04-26 01:39 29.31455 -112.98579 36854 ft 493 kts 143°
2026-04-26 01:39 29.26863 -112.92737 36854 ft 493 kts 143°
2026-04-26 01:40 29.22299 -112.86940 36852 ft 493 kts 143°
2026-04-26 01:40 29.17700 -112.81106 36848 ft 493 kts 143°
2026-04-26 01:41 29.13103 -112.75284 36850 ft 493 kts 143°
2026-04-26 01:41 29.08502 -112.69465 36849 ft 493 kts 143°
2026-04-26 01:42 29.03899 -112.63652 36849 ft 493 kts 143°
2026-04-26 01:42 28.99298 -112.57850 36847 ft 493 kts 143°
2026-04-26 01:43 28.94694 -112.52053 36845 ft 493 kts 143°
2026-04-26 01:43 28.90087 -112.46259 36847 ft 493 kts 143°
2026-04-26 01:44 28.85477 -112.40470 36846 ft 493 kts 142°
2026-04-26 01:44 28.80862 -112.34684 36843 ft 493 kts 142°
2026-04-26 01:45 28.76247 -112.28906 36860 ft 493 kts 142°
2026-04-26 01:45 28.71648 -112.23155 36845 ft 493 kts 142°
2026-04-26 01:46 28.67028 -112.17386 36852 ft 493 kts 142°
2026-04-26 01:46 28.62400 -112.11616 36847 ft 493 kts 142°
2026-04-26 01:47 28.57776 -112.05860 36844 ft 493 kts 142°
2026-04-26 01:47 28.53145 -112.00101 36850 ft 493 kts 142°
2026-04-26 01:48 28.48511 -111.94349 36851 ft 493 kts 142°
2026-04-26 01:48 28.43878 -111.88604 36850 ft 493 kts 142°
2026-04-26 01:49 28.39242 -111.82865 36849 ft 493 kts 142°
2026-04-26 01:49 28.34607 -111.77133 36849 ft 493 kts 142°
2026-04-26 01:50 28.29965 -111.71402 36848 ft 493 kts 142°
2026-04-26 01:50 28.25324 -111.65680 36847 ft 493 kts 142°
2026-04-26 01:51 28.20676 -111.59958 36850 ft 493 kts 142°
2026-04-26 01:51 28.16025 -111.54238 36851 ft 493 kts 142°
2026-04-26 01:52 28.11369 -111.48521 36852 ft 493 kts 142°
2026-04-26 01:52 28.06715 -111.42815 36853 ft 493 kts 142°
2026-04-26 01:53 28.02840 -111.38069 36856 ft 493 kts 142°
2026-04-26 01:53 27.98179 -111.32369 36854 ft 493 kts 142°
2026-04-26 01:54 27.93520 -111.26677 36857 ft 493 kts 142°
2026-04-26 01:54 27.88850 -111.20982 36860 ft 493 kts 142°
2026-04-26 01:55 27.84182 -111.15295 36864 ft 493 kts 141°
2026-04-26 01:55 27.79505 -111.09606 36863 ft 493 kts 141°
2026-04-26 01:56 27.74834 -111.03932 36865 ft 493 kts 141°
2026-04-26 01:56 27.70164 -110.98267 36861 ft 493 kts 141°
2026-04-26 01:57 27.65517 -110.92637 36858 ft 493 kts 141°
2026-04-26 01:57 27.60838 -110.86976 36859 ft 494 kts 141°
2026-04-26 01:58 27.56149 -110.81311 36864 ft 494 kts 141°
2026-04-26 01:58 27.51462 -110.75654 36866 ft 494 kts 141°
2026-04-26 01:59 27.46767 -110.69997 36872 ft 494 kts 141°
2026-04-26 01:59 27.42063 -110.64337 36877 ft 494 kts 141°
2026-04-26 02:00 27.37361 -110.58685 36872 ft 494 kts 141°
2026-04-26 02:00 27.32655 -110.53038 36876 ft 495 kts 141°
2026-04-26 02:01 27.27979 -110.47432 36886 ft 495 kts 141°
2026-04-26 02:01 27.23266 -110.41791 36883 ft 495 kts 141°
2026-04-26 02:02 27.18551 -110.36155 36886 ft 495 kts 141°
2026-04-26 02:02 27.13829 -110.30518 36882 ft 495 kts 141°
2026-04-26 02:03 27.09100 -110.24879 36878 ft 495 kts 141°
2026-04-26 02:03 27.04367 -110.19244 36876 ft 496 kts 141°
2026-04-26 02:04 26.99635 -110.13617 36872 ft 496 kts 141°
2026-04-26 02:04 26.94921 -110.08018 36872 ft 496 kts 141°
2026-04-26 02:05 26.90173 -110.02387 36873 ft 497 kts 141°
2026-04-26 02:05 26.85423 -109.96761 36875 ft 497 kts 141°
2026-04-26 02:06 26.80662 -109.91129 36873 ft 497 kts 141°
2026-04-26 02:06 26.75897 -109.85500 36876 ft 498 kts 141°
2026-04-26 02:07 26.71125 -109.79869 36873 ft 498 kts 141°
2026-04-26 02:07 26.66380 -109.74280 36881 ft 499 kts 141°
2026-04-26 02:08 26.61605 -109.68659 36886 ft 499 kts 141°
2026-04-26 02:08 26.56822 -109.63038 36879 ft 499 kts 141°
2026-04-26 02:09 26.52031 -109.57415 36888 ft 500 kts 141°
2026-04-26 02:09 26.47231 -109.51788 36893 ft 500 kts 141°
2026-04-26 02:10 26.42431 -109.46169 36893 ft 501 kts 141°
2026-04-26 02:10 26.37616 -109.40539 36891 ft 501 kts 141°
2026-04-26 02:11 26.32827 -109.34948 36890 ft 501 kts 141°
2026-04-26 02:11 26.28003 -109.29322 36893 ft 502 kts 141°
2026-04-26 02:12 26.23174 -109.23698 36893 ft 502 kts 141°
2026-04-26 02:12 26.18340 -109.18075 36892 ft 502 kts 141°
2026-04-26 02:13 26.13498 -109.12450 36893 ft 502 kts 141°
2026-04-26 02:13 26.08693 -109.06875 36891 ft 503 kts 141°
2026-04-26 02:14 26.03847 -109.01261 36886 ft 503 kts 141°
2026-04-26 02:14 25.98984 -108.95632 36882 ft 503 kts 141°
2026-04-26 02:15 25.94124 -108.90016 36889 ft 504 kts 141°
2026-04-26 02:15 25.89293 -108.84439 36887 ft 504 kts 141°
2026-04-26 02:16 25.84425 -108.78826 36883 ft 504 kts 141°
2026-04-26 02:16 25.79559 -108.73223 36884 ft 504 kts 141°
2026-04-26 02:17 25.74684 -108.67617 36882 ft 504 kts 141°
2026-04-26 02:17 25.69841 -108.62055 36880 ft 504 kts 141°
2026-04-26 02:18 25.64976 -108.56475 36878 ft 504 kts 142°
2026-04-26 02:18 25.60100 -108.50888 36881 ft 503 kts 141°
2026-04-26 02:19 25.55229 -108.45315 36881 ft 503 kts 142°
2026-04-26 02:19 25.50349 -108.39738 36881 ft 503 kts 142°
2026-04-26 02:20 25.45472 -108.34173 36879 ft 503 kts 141°
2026-04-26 02:20 25.40597 -108.28615 36879 ft 504 kts 142°
2026-04-26 02:21 25.35745 -108.23090 36874 ft 504 kts 141°
2026-04-26 02:21 25.30858 -108.17533 36876 ft 503 kts 142°
2026-04-26 02:22 25.25968 -108.11980 36877 ft 504 kts 142°
2026-04-26 02:22 25.21077 -108.06432 36881 ft 503 kts 142°
2026-04-26 02:23 25.16185 -108.00888 36883 ft 503 kts 142°
2026-04-26 02:23 25.11322 -107.95386 36873 ft 504 kts 141°
2026-04-26 02:24 25.06426 -107.89853 36880 ft 504 kts 141°
2026-04-26 02:24 25.01519 -107.84313 36887 ft 503 kts 141°
2026-04-26 02:25 24.96631 -107.78803 36853 ft 501 kts 142°
2026-04-26 02:25 24.91743 -107.73299 36877 ft 504 kts 141°
2026-04-26 02:26 24.86835 -107.67778 36873 ft 504 kts 141°
2026-04-26 02:26 24.81960 -107.62302 36874 ft 504 kts 141°
2026-04-26 02:27 24.77051 -107.56793 36876 ft 504 kts 141°
2026-04-26 02:27 24.72146 -107.51297 36876 ft 503 kts 141°
2026-04-26 02:28 24.67234 -107.45799 36885 ft 503 kts 141°
2026-04-26 02:28 24.62315 -107.40299 36881 ft 503 kts 141°
2026-04-26 02:29 24.57404 -107.34817 36870 ft 503 kts 141°
2026-04-26 02:29 24.52518 -107.29365 36876 ft 503 kts 141°
2026-04-26 02:30 24.47601 -107.23888 36876 ft 503 kts 141°
2026-04-26 02:30 24.42683 -107.18416 36875 ft 503 kts 141°
2026-04-26 02:31 24.37759 -107.12943 36878 ft 503 kts 141°
2026-04-26 02:31 24.32842 -107.07485 36891 ft 503 kts 141°
2026-04-26 02:32 24.27925 -107.02033 36882 ft 502 kts 141°
2026-04-26 02:32 24.23041 -106.96623 36886 ft 502 kts 141°
2026-04-26 02:33 24.18121 -106.91180 36875 ft 502 kts 141°
2026-04-26 02:33 24.13201 -106.85744 36890 ft 503 kts 141°
2026-04-26 02:34 24.08277 -106.80310 36887 ft 502 kts 141°
2026-04-26 02:34 24.03341 -106.74868 36891 ft 502 kts 141°
2026-04-26 02:35 23.98449 -106.69482 36886 ft 502 kts 141°
2026-04-26 02:35 23.93512 -106.64052 36887 ft 503 kts 141°
2026-04-26 02:36 23.88577 -106.58631 36887 ft 502 kts 141°
2026-04-26 02:36 23.83641 -106.53215 36892 ft 502 kts 141°
2026-04-26 02:37 23.78704 -106.47804 36902 ft 503 kts 141°
2026-04-26 02:37 23.73768 -106.42399 36887 ft 502 kts 141°
2026-04-26 02:38 23.68854 -106.37026 36891 ft 503 kts 141°
2026-04-26 02:38 23.63906 -106.31621 36901 ft 503 kts 141°
2026-04-26 02:39 23.58950 -106.26213 36898 ft 503 kts 141°
2026-04-26 02:39 23.53999 -106.20817 36902 ft 503 kts 141°
2026-04-26 02:40 23.49040 -106.15419 36906 ft 503 kts 141°
2026-04-26 02:40 23.45175 -106.11215 36905 ft 503 kts 141°
2026-04-26 02:41 23.41055 -106.06739 36895 ft 503 kts 141°
2026-04-26 02:41 23.36094 -106.01354 36903 ft 503 kts 141°
2026-04-26 02:42 23.31127 -105.95969 36900 ft 503 kts 141°
2026-04-26 02:42 23.26155 -105.90584 36905 ft 503 kts 141°
2026-04-26 02:43 23.18715 -105.82537 36892 ft 502 kts 140°
2026-04-26 02:43 23.13782 -105.77208 36898 ft 504 kts 140°
2026-04-26 02:44 23.11295 -105.74523 36744 ft 504 kts 140°
2026-04-26 02:44 23.08814 -105.71846 36302 ft 501 kts 140°
2026-04-26 02:44 23.06344 -105.69184 35882 ft 500 kts 140°
2026-04-26 02:44 23.03880 -105.66528 35468 ft 499 kts 140°
2026-04-26 02:45 23.01415 -105.63873 35049 ft 499 kts 140°
2026-04-26 02:45 22.98948 -105.61217 34680 ft 499 kts 140°
2026-04-26 02:45 22.96484 -105.58566 34445 ft 499 kts 139°
2026-04-26 02:45 22.94021 -105.55917 34253 ft 500 kts 139°
2026-04-26 02:46 22.91540 -105.53252 34066 ft 500 kts 139°
2026-04-26 02:46 22.89070 -105.50599 33866 ft 500 kts 139°
2026-04-26 02:46 22.86602 -105.47949 33667 ft 499 kts 139°
2026-04-26 02:46 22.84131 -105.45298 33455 ft 499 kts 139°
2026-04-26 02:47 22.81663 -105.42651 33247 ft 499 kts 139°
2026-04-26 02:47 22.79196 -105.40007 33039 ft 498 kts 139°
2026-04-26 02:47 22.76763 -105.37400 32849 ft 497 kts 139°
2026-04-26 02:47 22.74303 -105.34765 32663 ft 496 kts 139°
2026-04-26 02:48 22.71840 -105.32130 32457 ft 496 kts 139°
2026-04-26 02:48 22.69379 -105.29498 32260 ft 496 kts 139°
2026-04-26 02:48 22.66920 -105.26869 32069 ft 497 kts 139°
2026-04-26 02:48 22.64460 -105.24241 31875 ft 496 kts 139°
2026-04-26 02:49 22.62003 -105.21618 31695 ft 497 kts 139°
2026-04-26 02:49 22.59544 -105.18993 31494 ft 497 kts 139°
2026-04-26 02:49 22.57080 -105.16363 31315 ft 497 kts 139°
2026-04-26 02:49 22.54612 -105.13733 31122 ft 497 kts 139°
2026-04-26 02:50 22.52179 -105.11140 30941 ft 497 kts 139°
2026-04-26 02:50 22.49715 -105.08515 30766 ft 497 kts 139°
2026-04-26 02:50 22.47249 -105.05891 30583 ft 497 kts 139°
2026-04-26 02:50 22.44797 -105.03272 30399 ft 497 kts 137°
2026-04-26 02:51 22.42658 -105.00298 30206 ft 503 kts 124°
2026-04-26 02:51 22.40833 -104.97063 30025 ft 503 kts 125°
2026-04-26 02:51 22.38959 -104.93858 29812 ft 503 kts 125°
2026-04-26 02:51 22.37083 -104.90665 29616 ft 504 kts 125°
2026-04-26 02:52 22.35203 -104.87471 29404 ft 504 kts 125°
2026-04-26 02:52 22.33346 -104.84315 29190 ft 504 kts 125°
2026-04-26 02:52 22.31465 -104.81121 28977 ft 503 kts 125°
2026-04-26 02:52 22.29583 -104.77929 28769 ft 504 kts 125°
2026-04-26 02:53 22.27698 -104.74733 28575 ft 503 kts 125°
2026-04-26 02:53 22.25822 -104.71553 28364 ft 503 kts 125°
2026-04-26 02:53 22.23940 -104.68365 28154 ft 503 kts 125°
2026-04-26 02:53 22.22053 -104.65171 27955 ft 504 kts 125°
2026-04-26 02:54 22.20165 -104.61977 27769 ft 504 kts 125°
2026-04-26 02:54 22.18275 -104.58781 27571 ft 504 kts 125°
2026-04-26 02:54 22.16407 -104.55625 27397 ft 504 kts 124°
2026-04-26 02:54 22.14520 -104.52437 27230 ft 504 kts 124°
2026-04-26 02:55 22.12632 -104.49251 27039 ft 504 kts 124°
2026-04-26 02:55 22.10742 -104.46062 26854 ft 504 kts 124°
2026-04-26 02:55 22.08854 -104.42881 26681 ft 504 kts 124°
2026-04-26 02:55 22.06959 -104.39688 26509 ft 504 kts 124°
2026-04-26 02:56 22.05071 -104.36510 26331 ft 505 kts 124°
2026-04-26 02:56 22.03174 -104.33316 26149 ft 505 kts 124°
2026-04-26 02:56 22.01280 -104.30130 25987 ft 505 kts 124°
2026-04-26 02:56 21.99397 -104.26967 25826 ft 499 kts 124°
2026-04-26 02:57 21.97528 -104.23826 25653 ft 497 kts 124°
2026-04-26 02:57 21.95663 -104.20695 25494 ft 495 kts 124°
2026-04-26 02:57 21.93803 -104.17575 25314 ft 494 kts 124°
2026-04-26 02:57 21.91975 -104.14509 25143 ft 493 kts 124°
2026-04-26 02:58 21.90122 -104.11404 24978 ft 491 kts 124°
2026-04-26 02:58 21.88278 -104.08314 24811 ft 489 kts 124°
2026-04-26 02:58 21.86446 -104.05248 24638 ft 487 kts 124°
2026-04-26 02:58 21.84617 -104.02187 24478 ft 485 kts 124°
2026-04-26 02:59 21.82792 -103.99135 24314 ft 484 kts 124°
2026-04-26 02:59 21.80977 -103.96101 24154 ft 481 kts 124°
2026-04-26 02:59 21.79169 -103.93082 24004 ft 478 kts 124°
2026-04-26 02:59 21.77370 -103.90078 23946 ft 478 kts 124°
2026-04-26 03:00 21.75571 -103.87078 23934 ft 477 kts 124°
2026-04-26 03:00 21.73768 -103.84071 23948 ft 478 kts 124°
2026-04-26 03:00 21.71963 -103.81062 23867 ft 477 kts 124°
2026-04-26 03:00 21.70161 -103.78059 23623 ft 475 kts 124°
2026-04-26 03:01 21.68395 -103.75119 23324 ft 473 kts 124°
2026-04-26 03:01 21.66592 -103.72118 22994 ft 470 kts 124°
2026-04-26 03:01 21.64572 -103.69455 22672 ft 464 kts 138°
2026-04-26 03:01 21.61962 -103.67458 22362 ft 458 kts 154°
2026-04-26 03:02 21.59005 -103.66202 22043 ft 455 kts 162°
2026-04-26 03:02 21.56027 -103.65137 21728 ft 448 kts 163°
2026-04-26 03:02 21.53066 -103.64117 21396 ft 444 kts 164°
2026-04-26 03:02 21.50127 -103.63126 21075 ft 442 kts 164°
2026-04-26 03:03 21.47200 -103.62154 20756 ft 439 kts 164°
2026-04-26 03:03 21.44284 -103.61192 20447 ft 437 kts 164°
2026-04-26 03:03 21.41380 -103.60235 20132 ft 435 kts 164°
2026-04-26 03:03 21.38490 -103.59284 19822 ft 433 kts 164°
2026-04-26 03:04 21.35662 -103.58328 19523 ft 431 kts 160°
2026-04-26 03:04 21.33045 -103.56791 19212 ft 429 kts 142°
2026-04-26 03:04 21.30978 -103.54501 18927 ft 428 kts 125°
2026-04-26 03:04 21.29441 -103.51783 18673 ft 426 kts 120°
2026-04-26 03:05 21.27951 -103.49048 18402 ft 423 kts 120°
2026-04-26 03:05 21.26481 -103.46319 18122 ft 421 kts 120°
2026-04-26 03:05 21.25027 -103.43604 17816 ft 419 kts 120°
2026-04-26 03:05 21.23581 -103.40901 17504 ft 417 kts 120°
2026-04-26 03:06 21.22141 -103.38207 17203 ft 415 kts 120°
2026-04-26 03:06 21.20708 -103.35530 16897 ft 413 kts 120°
2026-04-26 03:06 21.19284 -103.32867 16604 ft 411 kts 120°
2026-04-26 03:06 21.17864 -103.30215 16309 ft 409 kts 120°
2026-04-26 03:07 21.16448 -103.27573 16062 ft 407 kts 120°
2026-04-26 03:07 21.15039 -103.24942 15995 ft 407 kts 120°
2026-04-26 03:07 21.13635 -103.22307 15956 ft 407 kts 120°
2026-04-26 03:07 21.12236 -103.19681 15841 ft 406 kts 120°
2026-04-26 03:08 21.10859 -103.17120 15738 ft 394 kts 122°
2026-04-26 03:08 21.09120 -103.14924 15614 ft 381 kts 135°
2026-04-26 03:08 21.07267 -103.12960 15490 ft 368 kts 135°
2026-04-26 03:08 21.05471 -103.11056 15363 ft 357 kts 135°
2026-04-26 03:09 21.03722 -103.09214 15178 ft 348 kts 135°
2026-04-26 03:09 21.02017 -103.07423 14975 ft 340 kts 135°
2026-04-26 03:09 21.00346 -103.05669 14778 ft 333 kts 135°
2026-04-26 03:09 20.98705 -103.03947 14580 ft 326 kts 135°
2026-04-26 03:10 20.97107 -103.02272 14383 ft 319 kts 134°
2026-04-26 03:10 20.95529 -103.00619 14181 ft 314 kts 135°
2026-04-26 03:10 20.93977 -102.98994 13990 ft 310 kts 134°
2026-04-26 03:10 20.92459 -102.97405 13945 ft 309 kts 134°
2026-04-26 03:11 20.90924 -102.95797 13855 ft 309 kts 134°
2026-04-26 03:11 20.89387 -102.94188 13757 ft 309 kts 134°
2026-04-26 03:11 20.87854 -102.92585 13651 ft 308 kts 134°
2026-04-26 03:11 20.86321 -102.90982 13554 ft 308 kts 134°
2026-04-26 03:12 20.84790 -102.89381 13461 ft 308 kts 134°
2026-04-26 03:12 20.83254 -102.87777 13356 ft 308 kts 134°
2026-04-26 03:12 20.81724 -102.86178 13251 ft 307 kts 134°
2026-04-26 03:12 20.80214 -102.84601 13164 ft 307 kts 134°
2026-04-26 03:13 20.78668 -102.82987 13068 ft 307 kts 134°
2026-04-26 03:13 20.77165 -102.81418 13004 ft 306 kts 135°
2026-04-26 03:13 20.75637 -102.79824 12994 ft 306 kts 135°
2026-04-26 03:13 20.74114 -102.78236 12992 ft 307 kts 134°
2026-04-26 03:14 20.72585 -102.76642 12992 ft 307 kts 135°
2026-04-26 03:14 20.71019 -102.75090 12986 ft 307 kts 141°
2026-04-26 03:14 20.69287 -102.73748 12987 ft 308 kts 143°
2026-04-26 03:14 20.67562 -102.72400 12989 ft 308 kts 142°
2026-04-26 03:15 20.65842 -102.71039 12996 ft 308 kts 142°
2026-04-26 03:15 20.64124 -102.69668 12993 ft 308 kts 142°
2026-04-26 03:15 20.62414 -102.68297 12997 ft 304 kts 142°
2026-04-26 03:15 20.60759 -102.66969 12999 ft 291 kts 142°
2026-04-26 03:16 20.59162 -102.65686 12997 ft 285 kts 142°
2026-04-26 03:16 20.57597 -102.64428 12996 ft 285 kts 142°
2026-04-26 03:16 20.56012 -102.63154 13000 ft 285 kts 142°
2026-04-26 03:16 20.54249 -102.62220 12981 ft 285 kts 166°
2026-04-26 03:17 20.52272 -102.61922 13002 ft 287 kts 171°
2026-04-26 03:17 20.50293 -102.61644 12995 ft 287 kts 171°
2026-04-26 03:17 20.48306 -102.61375 12995 ft 287 kts 171°
2026-04-26 03:17 20.46324 -102.61114 12998 ft 287 kts 172°
2026-04-26 03:18 20.44337 -102.60857 12994 ft 287 kts 172°
2026-04-26 03:18 20.42352 -102.60603 12980 ft 287 kts 172°
2026-04-26 03:18 20.40368 -102.60351 12810 ft 287 kts 172°
2026-04-26 03:18 20.38390 -102.60099 12668 ft 285 kts 172°
2026-04-26 03:19 20.36417 -102.59848 12517 ft 285 kts 172°
2026-04-26 03:19 20.34442 -102.59715 12360 ft 285 kts 186°
2026-04-26 03:19 20.32550 -102.60300 12153 ft 284 kts 209°
2026-04-26 03:19 20.31083 -102.61675 11929 ft 282 kts 236°
2026-04-26 03:20 20.30342 -102.63554 11716 ft 280 kts 261°
2026-04-26 03:20 20.30392 -102.65610 11503 ft 277 kts 284°
2026-04-26 03:20 20.30944 -102.67575 11307 ft 276 kts 286°
2026-04-26 03:20 20.31473 -102.69536 11124 ft 274 kts 286°
2026-04-26 03:21 20.31992 -102.71491 10954 ft 273 kts 285°
2026-04-26 03:21 20.32501 -102.73429 10784 ft 271 kts 285°
2026-04-26 03:21 20.33003 -102.75354 10650 ft 269 kts 285°
2026-04-26 03:21 20.33502 -102.77275 10514 ft 268 kts 285°
2026-04-26 03:22 20.33998 -102.79185 10380 ft 267 kts 285°
2026-04-26 03:22 20.34491 -102.81088 10240 ft 266 kts 285°
2026-04-26 03:22 20.34977 -102.82963 10118 ft 265 kts 285°
2026-04-26 03:22 20.35467 -102.84858 9994 ft 265 kts 285°
2026-04-26 03:23 20.35954 -102.86746 9887 ft 264 kts 285°
2026-04-26 03:23 20.36441 -102.88630 9771 ft 263 kts 285°
2026-04-26 03:23 20.36928 -102.90514 9658 ft 263 kts 285°
2026-04-26 03:23 20.37413 -102.92393 9523 ft 263 kts 285°
2026-04-26 03:24 20.37897 -102.94271 9418 ft 262 kts 284°
2026-04-26 03:24 20.38374 -102.96149 9296 ft 262 kts 284°
2026-04-26 03:24 20.38853 -102.98020 9198 ft 261 kts 284°
2026-04-26 03:24 20.39326 -102.99870 9088 ft 261 kts 284°
2026-04-26 03:25 20.39912 -103.01710 8975 ft 263 kts 292°
2026-04-26 03:25 20.40733 -103.03447 8882 ft 262 kts 294°
2026-04-26 03:25 20.41420 -103.05236 8779 ft 260 kts 289°
2026-04-26 03:25 20.42098 -103.07021 8620 ft 260 kts 291°
2026-04-26 03:26 20.42828 -103.08786 8475 ft 260 kts 292°
2026-04-26 03:26 20.43564 -103.10544 8307 ft 260 kts 292°
2026-04-26 03:26 20.44299 -103.12303 8036 ft 259 kts 293°
2026-04-26 03:26 20.45030 -103.14047 7727 ft 253 kts 293°
2026-04-26 03:27 20.45737 -103.15735 7447 ft 244 kts 293°
2026-04-26 03:27 20.46417 -103.17359 7185 ft 236 kts 293°
2026-04-26 03:27 20.47065 -103.18905 6946 ft 225 kts 293°
2026-04-26 03:27 20.47677 -103.20367 6699 ft 205 kts 293°
2026-04-26 03:28 20.48225 -103.21674 6480 ft 181 kts 293°
2026-04-26 03:28 20.48707 -103.22827 6318 ft 161 kts 293°
2026-04-26 03:28 20.49162 -103.23913 6146 ft 160 kts 292°
2026-04-26 03:28 20.49622 -103.25009 5956 ft 163 kts 292°
2026-04-26 03:29 20.49926 -103.25740 5853 ft 162 kts 292°
2026-04-26 03:29 20.50531 -103.27176 5526 ft 159 kts 291°
2026-04-26 03:29 20.50992 -103.28254 5243 ft 160 kts 291°
2026-04-26 03:29 20.51439 -103.29336 5082 ft 158 kts 291°
2026-04-26 03:30 20.51729 -103.30023 5032 ft 145 kts 291°
2026-04-26 03:30 20.52057 -103.30825 5033 ft 82 kts 293°
2026-04-26 03:30 20.52225 -103.31216 5035 ft 41 kts 294°
2026-04-26 03:30 20.52358 -103.31466 5027 ft 34 kts 315°
2026-04-26 03:31 20.52472 -103.31563 5032 ft 13 kts 326°
2026-04-26 03:31 20.52551 -103.31593 5030 ft 11 kts 12°
2026-04-26 03:31 20.52628 -103.31558 5031 ft 13 kts 24°
2026-04-26 03:31 20.52689 -103.31530 5027 ft 9 kts 23°
2026-04-26 03:32 20.52747 -103.31502 5031 ft 10 kts 24°
2026-04-26 03:32 20.52763 -103.31484 5028 ft 7 kts 69°
2026-04-26 03:32 20.52741 -103.31395 5029 ft 17 kts 114°
2026-04-26 03:32 20.52689 -103.31275 5030 ft 19 kts 115°
2026-04-26 03:33 20.52636 -103.31145 5031 ft 20 kts 114°
2026-04-26 03:33 20.52582 -103.31017 5031 ft 17 kts 115°
2026-04-26 03:33 20.52531 -103.30896 5026 ft 18 kts 114°
2026-04-26 03:33 20.52477 -103.30767 5029 ft 20 kts 114°
2026-04-26 03:34 20.52419 -103.30630 5031 ft 21 kts 114°
2026-04-26 03:34 20.52359 -103.30487 5029 ft 22 kts 114°
2026-04-26 03:34 20.52298 -103.30342 5029 ft 21 kts 114°
2026-04-26 03:34 20.52281 -103.30258 5031 ft 8 kts 63°
2026-04-26 03:35 20.52301 -103.30242 5028 ft 4 kts 17°
2026-04-26 03:35 20.52336 -103.30231 5027 ft 5 kts 19°
2026-04-26 03:35 20.52378 -103.30215 5031 ft 8 kts 19°
2026-04-26 03:35 20.52398 -103.30193 5031 ft 4 kts 74°
2026-04-26 03:36 20.52397 -103.30159 5028 ft 5 kts 90°
2026-04-26 03:36 20.52401 -103.30146 5031 ft 0 kts 62°
2026-04-26 03:36 20.52410 -103.30140 5030 ft 4 kts 32°
2026-04-26 03:36 20.52430 -103.30131 5031 ft 3 kts 13°
2026-04-26 03:37 20.52446 -103.30126 5031 ft 0 kts 18°